www.pogodaiklimat.ru

Погода и климат >> Архив погоды >> Аргентина >> Эсейса


ПОГОДА в Эсейсе

  • Прогноз погоды в Эсейсе
  • Монитор погоды в Эсейсе

АРХИВ ПОГОДЫ в Эсейсе

Время (UTC), дата Ветер
(напр.,м/с)
 
Видим.   Явления Облачность Т
(С)
Тd
(С)
f
(%)
Тe
(С)
Тes
(С)
Комфортность P
(гПа)
Po
(гПа)
Тmin
(С)
Tmax
(С)
R
(мм)
R24
(мм)
S
(см)
00 20.03 Ю 2 10 км {дождь} 1/0
[Ac cast]
+13.5 +11.1 85 +13 +13 1019.8 1017.4 +13.2 +19.2 0.1
03 20.03 Ю 1 10 км 8/0
[Ac cast Ci fib]
+12.8 +10.7 87 +13 +13 1021.0 1018.6
06 20.03 Ю 2 10 км 1/0
[Ac cast]
+10.9 +8.7 86 +10 +10 1022.2 1019.8
09 20.03 Ю 2 10 км ясно +9.3 +7.6 89 +8 +8 1022.1 1019.7
12 20.03 Ю 2 10 км ясно +12.9 +8.5 75 +12 +16 1023.4 1021.0 +8.7 +13.6 1
15 20.03 Ю 4 10 км 3/3 1230 м
[Cu hum]
+17.9 +6.3 47 +18 +24 1023.5 1021.2
18 20.03 ЮЗ 5 10 км 5/5 1500 м
[Cu Sc]
+20.0 +4.7 37 +21 +24 комфорт 1023.0 1020.6
21 20.03 Ю 3 10 км 1/1 1500 м
[Cu hum]
+18.4 +3.7 38 +19 +19 1022.0 1019.6
00 21.03 Ю 1 10 км ясно +13.1 +7.9 71 +13 +13 1023.3 1020.9 +12.9 +20.3
03 21.03 Ю 2 10 км ясно +12.1 +9.1 82 +11 +11 1023.7 1021.3
06 21.03 Ю 1 10 км ясно +10.1 +8.7 91 +10 +10 1023.6 1021.2
09 21.03 штиль 0 10 км ясно +7.0 +6.1 94 +6 +6 1023.4 1021.0
12 21.03 ЮВ 2 10 км ясно +13.3 +7.9 70 +13 +16 1023.8 1021.4 +7.0 +13.3
15 21.03 нст 2 10 км 1/1 1500 м
[Cu hum]
+18.9 +7.4 47 +20 +33 опасность
простуды
1023.4 1021.0
18 21.03 ЮЗ 2 10 км 5/5 1500 м
[Cu hum]
+19.5 +7.0 44 +21 +27 комфорт 1021.4 1019.0
21 21.03 В 5 10 км 6/3 1500 м
[Cu hum Cs]
+19.3 +8.0 48 +20 +20 1019.6 1017.2
00 22.03 В 3 10 км 9/0
[Cs]
+16.3 +9.2 63 +16 +16 1020.1 1017.7 +13.0 +21.0
03 22.03 В 2 10 км 10/0
[Cs]
+13.9 +10.5 80 +14 +14 1020.1 1017.7
06 22.03 ЮВ 1 7000 м дымка 5/0
[Ac trans]
+11.9 +10.2 89 +12 +12 1019.8 1017.4
09 22.03 В 2 7000 м дымка 10/0
[Cs]
+13.8 +10.4 80 +14 +14 1019.5 1017.2
12 22.03 ЮЗ 1 10 км дымка 5/0
[Ac trans Cs]
+14.9 +12.4 85 +15 +19 1020.8 1018.4 +11.0 +16.3
15 22.03 С 2 10 км 8/5 1260 м
[Cu Sc Ac trans Cs]
+21.1 +8.5 44 +22 +27 комфорт 1020.4 1018.0
18 22.03 СВ 2 10 км 5/4 1500 м
[Sc Ac trans Cs]
+21.9 +8.7 43 +23 +29 комфорт 1018.3 1016.0
21 22.03 В 4 10 км 1/1 1500 м
[Sc Ac trans]
+21.3 +9.3 46 +23 +23 комфорт 1017.0 1014.6
00 23.03 С 2 10 км ясно +18.9 +11.1 61 +20 +20 1018.1 1015.7 +14.7 +23.1
03 23.03 СВ 1 10 км ясно +17.3 +11.7 70 +18 +18 1018.1 1015.7
06 23.03 штиль 0 10 км 1/0
[Cc]
+14.5 +12.7 89 +14 +14 1017.2 1014.8
09 23.03 З 1 8000 м дымка ясно +10.9 +9.9 94 +10 +10 1016.8 1014.4
12 23.03 С 2 8000 м дымка 3/0
[Cs]
+16.9 +13.9 82 +17 +21 1017.1 1014.6 +10.0 +19.0
15 23.03 С 4 10 км 6/0
[Cs]
+22.5 +10.9 48 +25 +33 комфорт 1016.4 1014.0
18 23.03 С 4 10 км 6/0
[Cs]
+24.5 +11.8 45 +26 +32 жарко 1013.7 1011.3
21 23.03 СЗ 4 10 км 1/0
[Ci fib]
+23.9 +13.6 52 +26 +27 жарко 1012.4 1010.0
00 24.03 С 2 10 км ясно +21.8 +16.3 71 +26 +26 душно 1011.9 1009.4 +16.8 +25.7
03 24.03 С 3 10 км ясно +19.6 +13.7 69 +22 +22 комфорт 1011.7 1009.4
06 24.03 ЮЗ 5 10 км 4/0 1500 м
[Ac As]
+17.9 +13.9 77 +18 +18 1012.5 1010.2
09 24.03 ЮЗ 2 10 км ясно +14.7 +13.6 93 +14 +14 1013.1 1010.6
12 24.03 ЮЗ 5 10 км ясно +15.7 +9.4 66 +15 +16 1015.7 1013.3 +13.0 +21.8
15 24.03 ЮЗ 7 10 км 1/1 1110 м
[Cu hum Ci fib]
+19.7 +10.1 54 +20 +24 1016.1 1013.7
18 24.03 ЮЗ 6 10 км 8/8 1300 м
[Cu Sc]
+19.5 +10.1 55 +20 +21 1016.2 1013.8
21 24.03 ЮЗ 6 10 км 5/5 1500 м
[Cu Sc]
+19.5 +8.7 50 +20 +20 1016.2 1013.8
00 25.03 Ю 3 10 км ясно +15.3 +9.1 66 +15 +15 1017.6 1015.2 +15.2 +21.6
03 25.03 Ю 3 10 км ясно +13.4 +9.3 76 +12 +12 1018.3 1016.0
06 25.03 ЮЗ 2 10 км ясно +10.6 +8.6 87 +9 +9 1018.4 1016.0
09 25.03 ЮЗ 2 10 км ясно +9.6 +8.8 95 +8 +8 1018.8 1016.4
12 25.03 Ю 3 10 км 1/0
[Ci fib]
+11.7 +8.1 79 +10 +13 1020.4 1018.0 +9.3 +15.3
15 25.03 Ю 4 10 км 5/5 1020 м
[Cu hum]
+17.0 +8.3 57 +17 +22 1020.6 1018.2
18 25.03 Ю 4 10 км 5/4 1410 м
[Cu hum Ci fib]
+19.9 +8.3 47 +21 +25 комфорт 1019.4 1017.0
21 25.03 Ю 4 10 км 4/3 1500 м
[Sc diur, vesp Ac As Cs]
+19.1 +8.7 51 +20 +20 1019.5 1017.2
00 26.03 Ю 2 10 км 8/1 1200 м
[Sc diur, vesp Ac As]
+15.8 +10.6 71 +16 +16 1021.7 1019.3 +11.5 +20.6
03 26.03 Ю 3 10 км 9/1 1500 м
[Sc diur, vesp Ac As]
+15.1 +10.6 74 +14 +14 1022.9 1020.5
06 26.03 Ю 2 8000 м дымка 8/0 1500 м
[Ac As]
+12.6 +10.7 88 +12 +12 1023.4 1021.0
09 26.03 Ю 2 10 км ясно +10.3 +9.1 92 +9 +9 1023.5 1021.2
12 26.03 Ю 4 10 км 1/0
[Ac As]
+12.7 +10.2 85 +11 +13 1025.2 1022.8 +9.2 +15.8
15 26.03 В 5 10 км 6/6 930 м
[Cu hum Ac As]
+20.0 +11.8 59 +21 +24 комфорт 1025.4 1023.0
18 26.03 Ю 5 10 км 8/8 1260 м
[Cu Sc]
+21.1 +11.3 54 +23 +24 комфорт 1024.5 1022.1

 

Местоположение метеостанции Эсейса (Аргентина): широта -34.81 долгота -58.53 высота над уровнем моря 20 м.

В архиве по умолчанию представлена погода в Эсейсе за последнюю неделю. Архивные данные за месяц целиком и за предыдущие месяцы, начиная с января 2011 года, Вы можете получить, выбрав интересующий диапазон дат из раскрывающегося списка и нажав кнопку "Ввод!".


*Определитесь, кто Вы:
робот инопланетянин человек

Внимание! Время в таблицах - всемирное. Для получения местного времени необходимо прибавить поправку, которая равна -3 ч.

Смотрите также архив погоды в соседних городах и на ближайших метеорологических станциях:

Погода в Буэнос-Айресе (Аргентина) (26 км)
Погода в Буэнос-Айресе аэропорт (Аргентина) (30 км)
Погода в Ла-Плате (Аргентина) (60 км)
Погода в Колонии (Уругвай) (76 км)
Погода в Лас Флоресе (Аргентина) (149 км)
Погода в Мерседесе (Уругвай) (179 км)
Погода в Долоресе (Аргентина) (183 км)
Погода в Гуалегуайчу (Аргентина) (201 км)
Погода в Мелилье (Уругвай) (208 км)
Погода в Прадо (Уругвай) (213 км)

Пояснения к столбцам:

Ветер - указаны скорость ветра в м/с - средняя за 10 мин, порывы в срок и между сроками (в фигурных скобках) и направление, откуда дует ветер: С - северный, СВ - северо-восточный, В - восточный, ЮВ - юго-восточный, Ю - южный, ЮЗ - юго-западный, З - западный, СЗ - северо-западный.
Видимость - горизонтальная дальность видимости в метрах или километрах. При видимости от 1 до 10 км при отсутствии осадков обычно наблюдается дымка, при ухудшении видимости до 1 км и менее - туман. В сухую погоду видимость может ухудшаться дымом, пылью или мглою.
Явления - указаны атмосферные явления, наблюдавшиеся в срок или в последний час перед сроком; фигурными скобками обозначены явления, наблюдавшиеся между сроками (за 1-3 часа до срока); квадратными скобками обозначены град или гололедные отложения с указанием их диаметра в мм.
Облачность - указаны через наклонную черту общая и нижняя облачность в баллах и высота нижней границы облаков в метрах; квадратными скобками обозначены формы облаков: Ci - перистые, Cs - перисто-слоистые, Cc - перисто-кучевые, Ac - высококучевые, As - высокослоистые, Sc - слоисто-кучевые, Ns - слоисто-дождевые, Cu - кучевые, Cb - кучево-дождевые. Подробнее классификацию облаков см. в Атласе облаков (PDF).
T - Температура воздуха - температура, измеренная на высоте 2 м над землей.
Td - Температура точки росы - температура, при понижении до которой содержащийся в воздухе водяной пар достигнет насыщения.
f - Относительная влажность воздуха - влажноcть воздуха, измеренная на высоте 2 м над землей.
Te - Эффективная температура - температура, которую ощущает одетый по сезону человек в тени. Характеристика душности погоды. При расчете учитывается влияние влажности воздуха и скорости ветра на теплоощущения человека.
Tes - Эффективная температура на солнце - температура, которую ощущает человек, с поправкой на солнечный нагрев. Характеристика знойности погоды. Зависит от высоты солнца над горизонтом, облачности и скорости ветра. Ночью, в пасмурную погоду, а также при ветре 12 м/с и более поправка равна нулю.
P - Атмосферное давление - приведенное к уровню моря атмосферное давление.
Po - Атмосферное давление - измеренное на уровне метеостанции атмосферное давление.
Tmin - Минимальная температура - минимум температуры воздуха на высоте 2 м над землей.
Tmax - Максимальная температура - максимум температуры воздуха на высоте 2 м над землей.
R - Количество осадков - Количество выпавших осадков за период времени, мм. При наведении курсора мыши на число - период времени, за который выпало указанное количество осадков.
R24 - Количество осадков - Количество выпавших осадков за 24 часа, мм.
S - Снежный покров - Высота снежного покрова, см. При наведении курсора мыши на число - состояние снежного покрова и степень покрытия местности в баллах.